COSMOS 1989 (ETALON 1)

Last updated on Wed Jun 24 2026 00:03:44 GMT+0000 (Coordinated Universal Time)

1 19751U 89001C 26173.17078487 -.00000060 00000+0 00000+0 0 9997 2 19751 64.9482 72.0249 0023322 217.5477 331.6030 2.13156019291474
UTC large
Height (km)
Speed (km/s)
/
Latitude / Longitude
Inclination (degrees)
Orbital Period (minutes)
Azimuth
Elevation
Range (km)
Doppler Factor

Next 0 passes for location: London (51.5072 / 0.1276)

No passes found over London.
COSMOS 1989 (ETALON 1)